CW5834 Weather Reports


Display with metric or nautical units.
time (UTC)temp
F
wind
direction
speed
MPH
gust
MPH
rain 1hr
in
rain 24hr
in
rain mn
in
humidity
%
barometer
mb
20210724215022 88 135 2.0 5.0 0.00 0.00 0.00 59 1018.1
20210724214022 89 135 2.0 5.0 0.00 0.00 0.00 58 1018.2
20210724213022 89 203 1.0 5.0 0.00 0.00 0.00 56 1018.2
20210724212017 89 0.0 0.0 0.00 0.00 0.00 56 1018.2
20210724211016 88 0.0 0.0 0.00 0.00 0.00 60 1018.3
20210724210021 89 293 1.0 4.0 0.00 0.00 0.00 55 1018.4
20210724205021 91 203 3.0 8.0 0.00 0.00 0.00 53 1018.6
20210724204021 92 270 1.0 6.0 0.00 0.00 0.00 52 1018.6
20210724203022 92 225 3.0 6.0 0.00 0.00 0.00 52 1018.7
20210724202021 92 203 3.0 6.0 0.00 0.00 0.00 53 1018.8
20210724201016 91 225 3.0 7.0 0.00 0.00 0.00 55 1018.9
20210724200021 92 315 2.0 7.0 0.00 0.00 0.00 53 1018.9
20210724195021 92 180 3.0 9.0 0.00 0.00 0.00 52 1019.0
20210724194021 92 270 3.0 8.0 0.00 0.00 0.00 53 1019.1
20210724193021 92 180 3.0 10.0 0.00 0.00 0.00 52 1019.3
20210724192021 91 293 3.0 12.0 0.00 0.00 0.00 54 1019.5
20210724191021 91 225 4.0 10.0 0.00 0.00 0.00 53 1019.6
20210724190016 90 158 4.0 7.0 0.00 0.00 0.00 54 1019.5
20210724185021 90 248 2.0 7.0 0.00 0.00 0.00 54 1019.6
20210724184021 91 225 3.0 9.0 0.00 0.00 0.00 52 1019.8
20210724183021 89 180 2.0 8.0 0.00 0.00 0.00 54 1019.9
20210724182021 90 203 3.0 7.0 0.00 0.00 0.00 53 1020.2
20210724181021 89 180 4.0 9.0 0.00 0.00 0.00 55 1020.2
20210724180016 90 203 3.0 11.0 0.00 0.00 0.00 55 1020.5
20210724175021 89 225 3.0 8.0 0.00 0.00 0.00 54 1020.5
20210724174021 90 180 5.0 10.0 0.00 0.00 0.00 56 1020.7
20210724173021 89 180 4.0 8.0 0.00 0.00 0.00 60 1020.9
20210724172021 88 203 4.0 10.0 0.00 0.00 0.00 61 1020.8
20210724171021 88 180 4.0 8.0 0.00 0.00 0.00 59 1020.8
20210724170021 88 203 6.0 11.0 0.00 0.00 0.00 59 1021.0
20210724165016 88 203 5.0 13.0 0.00 0.00 0.00 62 1021.0
20210724164021 86 270 3.0 11.0 0.00 0.00 0.00 65 1021.2
20210724163021 87 293 3.0 9.0 0.00 0.00 0.00 63 1021.4
20210724162021 88 203 3.0 7.0 0.00 0.00 0.00 62 1021.4
20210724161021 87 203 4.0 10.0 0.00 0.00 0.00 64 1021.4
20210724160021 85 203 3.0 10.0 0.00 0.00 0.00 68 1021.4
20210724155016 85 158 3.0 8.0 0.00 0.00 0.00 66 1021.4
20210724154016 85 180 2.0 6.0 0.00 0.00 0.00 67 1021.4
20210724153021 83 180 3.0 9.0 0.00 0.00 0.00 70 1021.2
20210724152021 84 203 3.0 7.0 0.00 0.00 0.00 70 1021.4
20210724151021 84 180 5.0 11.0 0.00 0.00 0.00 68 1021.3
20210724150019 84 135 4.0 8.0 0.00 0.00 0.00 67 1021.4
20210724145021 84 203 2.0 7.0 0.00 0.00 0.00 67 1021.4
20210724144016 84 0.0 4.0 0.00 0.00 0.00 67 1021.3
20210724143021 84 0.0 4.0 0.00 0.00 0.00 67 1021.4
20210724142021 83 0.0 4.0 0.00 0.00 0.00 67 1021.4
20210724141021 82 0.0 0.0 0.00 0.00 0.00 67 1021.3
20210724140021 82 0.0 0.0 0.00 0.00 0.00 67 1021.5
20210724135021 81 0.0 0.0 0.00 0.00 0.00 71 1021.5
20210724134016 80 0.0 0.0 0.00 0.00 0.00 72 1021.4
20210724133016 79 0.0 0.0 0.00 0.00 0.00 75 1021.3
20210724132021 78 0.0 0.0 0.00 0.00 0.00 78 1021.2
20210724131021 76 0.0 0.0 0.00 0.00 0.00 82 1021.1
20210724130021 75 0.0 0.0 0.00 0.00 0.00 82 1020.9
20210724125021 74 0.0 0.0 0.00 0.00 0.00 84 1020.8
20210724124020 73 0.0 0.0 0.00 0.00 0.00 86 1020.9
20210724123015 72 0.0 0.0 0.00 0.00 0.00 89 1020.8
20210724122021 70 0.0 0.0 0.00 0.00 0.00 92 1020.7
20210724121021 68 0.0 0.0 0.00 0.00 0.00 94 1020.8
20210724120021 66 0.0 0.0 0.00 0.00 0.00 96 1020.6
20210724115020 66 0.0 0.0 0.00 0.00 0.00 96 1020.7
20210724114022 65 0.0 0.0 0.00 0.00 0.00 96 1020.7
20210724113021 65 0.0 0.0 0.00 0.00 0.00 96 1020.7
20210724112015 65 0.0 0.0 0.00 0.00 0.00 96 1020.4
20210724111020 64 0.0 0.0 0.00 0.00 0.00 96 1020.4
20210724110025 64 0.0 0.0 0.00 0.00 0.00 95 1020.4
20210724105021 64 0.0 0.0 0.00 0.00 0.00 95 1020.5
20210724104021 64 0.0 0.0 0.00 0.00 0.00 95 1020.5
20210724103029 64 0.0 0.0 0.00 0.00 0.00 95 1020.3
20210724102015 65 0.0 0.0 0.00 0.00 0.00 95 1020.4
20210724101015 65 0.0 0.0 0.00 0.00 0.00 95 1020.3
20210724100020 65 0.0 0.0 0.00 0.00 0.00 95 1020.2
20210724095020 65 0.0 0.0 0.00 0.00 0.00 95 1020.2
20210724094020 65 0.0 0.0 0.00 0.00 0.00 94 1020.3
20210724093020 65 0.0 0.0 0.00 0.00 0.00 94 1020.1
20210724092021 66 0.0 0.0 0.00 0.00 0.00 94 1020.0
20210724091015 66 0.0 0.0 0.00 0.00 0.00 94 1020.0
20210724090020 66 0.0 0.0 0.00 0.00 0.00 94 1020.0
20210724085020 66 0.0 0.0 0.00 0.00 0.00 94 1020.1
20210724084020 66 0.0 0.0 0.00 0.00 0.00 94 1020.0
20210724083020 66 0.0 0.0 0.00 0.00 0.00 94 1020.0
20210724082020 67 0.0 0.0 0.00 0.00 0.00 93 1020.0
20210724081015 67 0.0 0.0 0.00 0.00 0.00 93 1020.1
20210724080015 67 0.0 0.0 0.00 0.00 0.00 93 1020.1
20210724075020 67 0.0 0.0 0.00 0.00 0.00 93 1020.2
20210724074020 67 0.0 0.0 0.00 0.00 0.00 93 1020.5
20210724073022 67 0.0 0.0 0.00 0.00 0.00 93 1020.4
20210724072022 67 0.0 0.0 0.00 0.00 0.00 93 1020.5
20210724071017 67 0.0 0.0 0.00 0.00 0.00 93 1020.5
20210724070022 67 0.0 0.0 0.00 0.00 0.00 93 1020.3
20210724065022 67 0.0 0.0 0.00 0.00 0.00 93 1020.3
20210724064022 67 0.0 0.0 0.00 0.00 0.00 93 1020.5
20210724063022 67 0.0 0.0 0.00 0.00 0.00 92 1020.4
20210724062021 67 0.0 0.0 0.00 0.00 0.00 92 1020.4
20210724061021 68 0.0 0.0 0.00 0.00 0.00 92 1020.2
20210724060021 68 0.0 0.0 0.00 0.00 0.00 92 1020.3
20210724055021 68 0.0 0.0 0.00 0.00 0.00 91 1020.4
20210724054021 68 0.0 0.0 0.00 0.00 0.00 91 1020.6
20210724053016 69 0.0 0.0 0.00 0.00 0.00 91 1020.8
20210724052021 69 0.0 0.0 0.00 0.00 0.00 91 1020.7
20210724051021 69 0.0 0.0 0.00 0.00 0.00 90 1020.7
20210724050021 69 0.0 0.0 0.00 0.00 0.00 90 1020.8
20210724045021 69 0.0 0.0 0.00 0.00 0.00 89 1020.9
20210724044021 69 0.0 0.0 0.00 0.00 0.00 88 1020.9
20210724043021 69 0.0 0.0 0.00 0.00 0.00 87 1021.0
20210724042016 69 0.0 0.0 0.00 0.00 0.00 86 1020.9
20210724041049 69 0.0 0.0 0.00 0.00 0.00 87 1020.8
20210724035021 69 0.0 0.0 0.00 0.00 0.00 84 1021.1
20210724034021 69 0.0 0.0 0.00 0.00 0.00 83 1021.1
20210724033021 69 0.0 0.0 0.00 0.00 0.00 80 1021.1
20210724032021 70 0.0 0.0 0.00 0.00 0.00 79 1021.1
20210724031021 70 0.0 0.0 0.00 0.00 0.00 78 1021.2
20210724030016 70 0.0 0.0 0.00 0.00 0.00 78 1021.1
20210724025021 70 0.0 0.0 0.00 0.00 0.00 79 1020.9
20210724024021 71 0.0 0.0 0.00 0.00 0.00 76 1020.8
20210724023021 71 0.0 0.0 0.00 0.00 0.00 75 1020.8
20210724022021 71 0.0 0.0 0.00 0.00 0.00 74 1020.8
20210724021021 72 0.0 0.0 0.00 0.00 0.00 75 1020.8
20210724020016 72 0.0 0.0 0.00 0.00 0.00 73 1020.6
20210724015021 73 0.0 0.0 0.00 0.00 0.00 71 1020.6
20210724014021 73 0.0 0.0 0.00 0.00 0.00 70 1020.6
20210724013021 73 0.0 0.0 0.00 0.00 0.00 69 1020.5
20210724012021 74 0.0 0.0 0.00 0.00 0.00 68 1020.3
20210724011021 75 0.0 0.0 0.00 0.00 0.00 68 1020.3
20210724010021 76 0.0 0.0 0.00 0.00 0.00 66 1020.3
20210724005016 77 0.0 0.0 0.00 0.00 0.00 65 1020.0
20210724004021 78 0.0 0.0 0.00 0.00 0.00 66 1020.1
20210724003021 79 0.0 0.0 0.00 0.00 0.00 65 1019.9
20210724002021 80 0.0 0.0 0.00 0.00 0.00 62 1019.8
20210724001021 81 0.0 0.0 0.00 0.00 0.00 62 1019.8
20210724000021 83 0.0 0.0 0.00 0.00 0.00 60 1019.8
20210723235016 84 0.0 0.0 0.00 0.00 0.00 56 1019.8
20210723234016 85 0.0 0.0 0.00 0.00 0.00 53 1019.9
20210723233021 86 0.0 0.0 0.00 0.00 0.00 55 1019.8
20210723232021 87 0.0 0.0 0.00 0.00 0.00 51 1019.6
20210723231021 87 338 3.0 6.0 0.00 0.00 0.00 49 1019.7
20210723230019 87 293 2.0 7.0 0.00 0.00 0.00 49 1019.8
20210723225021 88 270 2.0 5.0 0.00 0.00 0.00 49 1019.9
20210723224015 88 270 3.0 5.0 0.00 0.00 0.00 48 1019.9
20210723223021 89 270 3.0 5.0 0.00 0.00 0.00 48 1019.9
20210723222021 88 270 3.0 6.0 0.00 0.00 0.00 47 1020.0
20210723221021 89 270 4.0 7.0 0.00 0.00 0.00 46 1020.1
20210723220020 89 270 1.0 4.0 0.00 0.00 0.00 48 1020.2